Weather History for Newark, NJ

Change the Weather History Date:

Saturday, September 21, 2013

  Actual Average Record
Temperature  
Mean Temperature 69 °F 66 °F  
Max Temperature 80 °F 75 °F 90 °F (1940)
Min Temperature 57 °F 58 °F 39 °F (1956)
Degree Days  
Heating Degree Days 0 2  
Month to date heating degree days 24 15  
Since 1 July heating degree days 24 16  
Cooling Degree Days 4 3  
Month to date cooling degree days 119 119  
Year to date cooling degree days 1290 1153  
Growing Degree Days 18 (Base 50)    
Moisture  
Dew Point 61 °F    
Average Humidity 73    
Maximum Humidity 97    
Minimum Humidity 49    
Precipitation  
Precipitation 0.54 in 0.14 in 4.71 in (1966)
Month to date precipitation 1.31 2.59  
Year to date precipitation 34.61 33.96  
Snow  
Snow 0.00 in 0.00 in 0.00 in (2002)
Month to date snowfall 0.0 0.0  
Since 1 July snowfall 0.0 0.0  
Snow Depth 0.00 in    
Sea Level Pressure  
Sea Level Pressure 29.86 in    
Wind  
Wind Speed 8 mph (SSE)    
Max Wind Speed 20 mph    
Max Gust Speed 28 mph    
Visibility 9 miles    
Events Rain    
T = Trace of Precipitation, MM = Missing Value Source: NWS Daily Summary

Daily Weather History Graph

Daily Weather History Graph

Search for Another Location

Airport:

Trip Planner

Search our weather history database for the weather conditions in past years. The results will help you decide how hot, cold, wet, or windy it might be!

Date:

Astronomy

Sep. 21, 2013 Rise Set
Actual Time 6:43 AM EDT 6:55 PM EDT
Civil Twilight 6:16 AM EDT 7:22 PM EDT
Nautical Twilight 5:44 AM EDT 7:54 PM EDT
Astronomical Twilight 5:11 AM EDT 8:26 PM EDT
Moon 8:03 PM EDT (9/21) 9:00 AM EDT (9/21)
Length of Visible Light 13h 06m
Length of Day
12h 11m
Waning Gibbous, 94% of the Moon is Illuminated
Sep 21
Waning Gibbous
Sep 26
Last Quarter
Oct 4
New
Oct 11
First Quarter
Oct 18
Full

Hourly Weather History & Observations

Time (EDT) Temp. Heat Index Dew Point Humidity Pressure Visibility Wind Dir Wind Speed Gust Speed Precip Events Conditions
12:51 AM 60.1 °F - 55.9 °F 86% 30.02 in 10.0 mi SW 4.6 mph - N/A   Scattered Clouds
1:51 AM 61.0 °F - 57.0 °F 87% 30.01 in 10.0 mi SSW 4.6 mph - N/A   Mostly Cloudy
2:51 AM 62.1 °F - 57.9 °F 86% 29.99 in 10.0 mi Calm Calm - N/A   Mostly Cloudy
3:51 AM 61.0 °F - 57.9 °F 90% 29.98 in 10.0 mi SE 4.6 mph - N/A   Mostly Cloudy
4:51 AM 61.0 °F - 57.0 °F 87% 29.97 in 10.0 mi South 3.5 mph - N/A   Mostly Cloudy
5:51 AM 59.0 °F - 55.9 °F 90% 29.97 in 10.0 mi Calm Calm - N/A   Scattered Clouds
6:51 AM 59.0 °F - 55.9 °F 90% 29.97 in 10.0 mi Calm Calm - N/A   Mostly Cloudy
7:51 AM 61.0 °F - 57.9 °F 90% 29.97 in 10.0 mi Calm Calm - N/A   Mostly Cloudy
8:23 AM 62.6 °F - 59.0 °F 88% 29.96 in 10.0 mi Calm Calm - N/A   Mostly Cloudy
8:51 AM 64.0 °F - 60.1 °F 87% 29.96 in 10.0 mi Calm Calm - N/A   Mostly Cloudy
9:33 AM 64.4 °F - 59.0 °F 83% 29.94 in 10.0 mi Calm Calm - N/A   Mostly Cloudy
9:51 AM 66.0 °F - 61.0 °F 84% 29.93 in 10.0 mi Calm Calm - N/A   Mostly Cloudy
10:08 AM 66.2 °F - 60.8 °F 83% 29.92 in 10.0 mi SSE 4.6 mph - N/A   Mostly Cloudy
10:51 AM 70.0 °F - 63.0 °F 78% 29.91 in 10.0 mi East 5.8 mph - N/A   Mostly Cloudy
11:51 AM 72.0 °F - 64.0 °F 76% 29.88 in 10.0 mi SE 11.5 mph - N/A   Overcast
12:51 PM 75.9 °F - 64.0 °F 67% 29.85 in 10.0 mi South 10.4 mph 18.4 mph N/A   Mostly Cloudy
1:51 PM 77.0 °F - 62.1 °F 60% 29.81 in 10.0 mi South 12.7 mph 23.0 mph N/A   Mostly Cloudy
2:51 PM 80.1 °F 80.7 °F 59.0 °F 48% 29.78 in 10.0 mi SSE 13.8 mph 19.6 mph N/A   Mostly Cloudy
3:51 PM 78.1 °F - 61.0 °F 56% 29.76 in 10.0 mi SSE 16.1 mph 25.3 mph N/A   Mostly Cloudy
4:51 PM 77.0 °F - 62.1 °F 60% 29.75 in 10.0 mi South 15.0 mph 25.3 mph N/A   Mostly Cloudy
5:51 PM 75.0 °F - 63.0 °F 66% 29.74 in 10.0 mi SSE 16.1 mph 26.5 mph N/A   Mostly Cloudy
6:51 PM 73.0 °F - 64.9 °F 76% 29.73 in 10.0 mi SSE 12.7 mph 18.4 mph N/A   Overcast
7:51 PM 72.0 °F - 66.0 °F 81% 29.73 in 10.0 mi SSE 10.4 mph - N/A   Overcast
8:51 PM 72.0 °F - 66.0 °F 81% 29.71 in 10.0 mi South 11.5 mph - N/A   Overcast
9:51 PM 72.0 °F - 66.9 °F 84% 29.70 in 10.0 mi South 9.2 mph - 0.00 in   Overcast
10:46 PM 69.8 °F - 68.0 °F 94% 29.69 in 4.0 mi South 12.7 mph - 0.08 in Rain Light Rain
10:51 PM 70.0 °F - 66.9 °F 90% 29.69 in 4.0 mi South 11.5 mph 24.2 mph 0.08 in Rain Light Rain
11:51 PM 70.0 °F - 68.0 °F 93% 29.67 in 3.0 mi South 12.7 mph 20.7 mph 0.19 in Rain Light Rain